Hourly Data Report for April 16, 2017

All times are specified in Local Standard Time (LST). Add 1 hour to adjust for Daylight Saving Time where and when it is observed.

TORONTO CITY
ONTARIO

43°40'00.000" N
79°24'00.000" W
112.50 m
6158355
71508
XTO

Download Data

Hourly Data (April 2017)
Hourly Data Report for April 16, 2017
TIME Temp Definition
°C
Dew Point Definition
°C
Rel Hum Definition
%
Wind Dir Definition
10's deg

Wind Spd Definition
km/h
Visibility Definition
km
Stn Press Definition
kPa
Hmdx Definition


Wind Chill Definition


Weather Definition


00:00 14.4 9.2 71 LegendMM LegendMM   99.66     LegendNANA
01:00 13.0 8.3 73 LegendMM LegendMM   99.62     LegendNANA
02:00 13.7 8.5 71 LegendMM LegendMM   99.59     LegendNANA
03:00 15.2 8.8 66 LegendMM LegendMM   99.55     LegendNANA
04:00 15.0 8.4 65 LegendMM LegendMM   99.52     LegendNANA
05:00 14.5 8.6 68 LegendMM LegendMM   99.51     LegendNANA
06:00 13.5 7.8 68 LegendMM LegendMM   99.52     LegendNANA
07:00 14.8 8.3 65 LegendMM LegendMM   99.47     LegendNANA
08:00 16.8 8.3 57 LegendMM LegendMM   99.43     LegendNANA
09:00 18.9 9.1 53 LegendMM LegendMM   99.33     LegendNANA
10:00 19.7 9.9 53 LegendMM LegendMM   99.26     LegendNANA
11:00 22.0 11.0 50 LegendMM LegendMM   99.22     LegendNANA
12:00 21.6 11.0 51 LegendMM LegendMM   99.25     LegendNANA
13:00 21.3 11.0 52 LegendMM LegendMM   99.30     LegendNANA
14:00 21.8 11.8 53 LegendMM LegendMM   99.33     LegendNANA
15:00 21.0 11.8 55 LegendMM LegendMM   99.37     LegendNANA
16:00 21.4 12.5 57 LegendMM LegendMM   99.42     LegendNANA
17:00 20.6 11.8 57 LegendMM LegendMM   99.46     LegendNANA
18:00 20.6 11.3 55 LegendMM LegendMM   99.47     LegendNANA
19:00 19.7 11.8 60 LegendMM LegendMM   99.52     LegendNANA
20:00 17.7 13.2 75 LegendMM LegendMM   99.65     LegendNANA
21:00 14.8 10.5 75 LegendMM LegendMM   99.79     LegendNANA
22:00 12.5 8.4 77 LegendMM LegendMM   99.86     LegendNANA
23:00 11.9 8.4 79 LegendMM LegendMM   99.96     LegendNANA

Notes on Data Quality.

Legend

  • E = Estimated
  • M = Missing
  • NA = Not Available
Date modified: